World > North America > United States > Michigan > Macomb Township   Township of Macomb, MI

Macomb Township, MI Hourly Weather Updates

Feedback E-mail the Weather

Quick Clicks

Macomb Township, MI Weather Maps

°F °C°F °C
Macomb Township Weather Map
UTC Time: 5/21/2024, 23:40
Your Time:

Macomb Township, MI Regional Weather

Expires:202405220000;;626049
ASUS43 KDTX 212310
RWRMI 
MICHIGAN HOURLY REGIONAL WEATHER ROUNDUP
NATIONAL WEATHER SERVICE DETROIT/PONTIAC MI
ISSUED BY NATIONAL WEATHER SERVICE GRAND RAPIDS MI
700 PM EDT TUE MAY 21 2024

NOTE: "FAIR" INDICATES FEW OR NO CLOUDS BELOW 12,000 FEET WITH NO
SIGNIFICANT WEATHER AND/OR OBSTRUCTION TO VISIBILITY.


MIZ047>049-052>055-059>063-066>070-074>076-081>083-220000-
SOUTHEAST LOWER MICHIGAN
  
CITY           SKY/WX    TMP DP  RH WIND       PRES   REMARKS
ADRIAN         SUNNY     88  59  37 S10       29.78F TC  31           
ALMA           MOSUNNY   81  63  54 SE8       29.74F TC  27           
ANN ARBOR      SUNNY     86  62  44 S7        29.77F TC  30           
BAD AXE        SUNNY     71  64  77 E8        29.81F TC  22           
DETROIT CITY   SUNNY     88  59  37 S12       29.79F TC  31           
DETROIT        MOSUNNY   85  64  49 SE10      29.79F TC  29           
FLINT          SUNNY     83  67  58 SE8       29.77F TC  28           
GROSSE ILE     CLOUDY    81  52  36 SE6       29.78F TC  27           
HILLSDALE      SUNNY     83  46  27 S9G17     29.77F TC  28           
HOWELL         SUNNY     84  59  42 S8        29.78F TC  29           

CITY           SKY/WX    TMP DP  RH WIND       PRES   REMARKS
JACKSON        SUNNY     85  59  41 S10G20    29.76F TC  29           
LANSING        SUNNY     83  61  47 S12       29.75F TC  28           
MASON          SUNNY     86  54  32 S12       29.76F TC  30           
MIDLAND        SUNNY     77  66  68 E10G18    29.75F TC  25           
MONROE         SUNNY     82  62  50 SE8       29.78F TC  28           
MT. CLEMENS    MOSUNNY   80  67  64 E7        29.76F TC  27           
PONTIAC        MOSUNNY   86  57  37 SW8       29.79F TC  30           
PORT HOPE        N/A     56  54  93 SE9       29.82F TC  13           
PORT HURON     SUNNY     72  61  68 NE8       29.82F TC  22           
TRI CITIES     SUNNY     81  64  56 E10       29.76F TC  27           
YPSILANTI      SUNNY     87  60  40 S9        29.78F TC  31           
$$

SKY/WX - Weather  TMP - Temperature  DP - Dew Point  RH - Humidity
WIND - Wind Direction/Speed PRES - Barometric Pressure VSB - Visibility
WCI - Wind Chill Index E13G22 Wind - East Wind 13 mph/Gusts of 22 mph

Trending Headlines

Trending Entertainment Headlines

Macomb Township Radar Loop

Use the map search tool if you want to place a location marker on the radar map...

Macomb Township Quick Facts

National Two Day Weather Forecast


E-mail the Macomb Township Weather Forecast

Voice your opinion or tell us about page issues...